This demonstration page uses our WeatherBlox Daily Observations layout. Learn more.

Left ArrowRight Arrow

Hourly Observations for December 31, 2015

Temp ( °F °C ) Dew Point ( °F °C ) Humidity (%) Winds ( mph kmh ) Pressure ( in mb ) Visibility ( mi km ) Precip ( " mm )
12:53 am 00:53 Clear 43 6.1 27 -2.8 53 53 N 10 17 30.27 1025 10 16 0.00 0.00
1:53 am 01:53 Clear 42 5.6 25 -3.9 51 51 N 7 11 30.27 1025 10 16 0.00 0.00
2:53 am 02:53 Clear 42 5.6 24 -4.4 49 49 N 9 15 30.27 1025 10 16 0.00 0.00
3:53 am 03:53 Clear 42 5.6 22 -5.6 45 45 N 7 11 30.27 1025 10 16 0.00 0.00
4:53 am 04:53 Clear 41 5 21 -6.1 45 45 N 9 15 30.27 1025 10 16 0.00 0.00
5:53 am 05:53 Clear 41 5 20 -6.7 43 43 N 7 11 30.28 1025 10 16 0.00 0.00
6:53 am 06:53 Clear 41 5 20 -6.7 43 43 NNW 8 13 30.29 1026 10 16 0.00 0.00
7:53 am 07:53 Sunny 41 5 19 -7.2 41 41 N 9 15 30.29 1026 10 16 0.00 0.00
8:53 am 08:53 Sunny 44 6.7 19 -7.2 37 37 N 9 15 30.30 1026 10 16 0.00 0.00
9:53 am 09:53 Sunny 46 7.8 17 -8.3 31 31 N 20 31 30.30 1026 10 16 0.00 0.00
10:53 am 10:53 Sunny 48 8.9 18 -7.8 30 30 N 15 24 30.29 1026 10 16 0.00 0.00
11:53 am 11:53 Sunny 50 10 18 -7.8 28 28 N 18 30 30.27 1025 10 16 0.00 0.00
12:53 pm 12:53 Sunny 51 10.6 19 -7.2 28 28 N 22 35 30.23 1024 10 16 0.00 0.00
1:53 pm 13:53 Sunny 52 11.1 19 -7.2 27 27 NNE 16 26 30.21 1023 10 16 0.00 0.00
2:53 pm 14:53 Sunny 53 11.7 18 -7.8 25 25 N 13 20 30.20 1023 10 16 0.00 0.00
3:53 pm 15:53 Sunny 52 11.1 19 -7.2 27 27 N 20 31 30.20 1023 10 16 0.00 0.00
4:53 pm 16:53 Clear 49 9.4 17 -8.3 28 28 N 16 26 30.21 1023 10 16 0.00 0.00
5:53 pm 17:53 Clear 47 8.3 15 -9.4 28 28 N 21 33 30.21 1023 10 16 0.00 0.00
6:53 pm 18:53 Clear 46 7.8 14 -10 27 27 N 15 24 30.23 1024 10 16 0.00 0.00
7:53 pm 19:53 Clear 44 6.7 13 -10.6 28 28 N 16 26 30.24 1024 10 16 0.00 0.00
8:53 pm 20:53 Clear 43 6.1 13 -10.6 29 29 undefined N/A 30.25 1024 10 16 0.00 0.00
9:53 pm 21:53 Clear 42 5.6 12 -11.1 29 29 N 16 26 30.25 1024 10 16 0.00 0.00
10:53 pm 22:53 Clear 41 5 12 -11.1 30 30 N 13 20 30.26 1025 10 16 0.00 0.00
11:53 pm 23:53 Clear 40 4.4 12 -11.1 32 32 N 20 31 30.24 1024 10 16 0.00 0.00

Powered by AerisWeather